• Join FlightAware (Why Join?)
  • Login
  • US Flag GB Flag 
03:57 EST


 

Airport Tracker/Info


-or-


 

Live Flight TrackerFlight Track Log ✈ KAP550 ✈ 16-May-2013 ✈ KALB - KMSS

Flight Track Log - Related Links

Times and Time Zones

All times are in EDT time to prevent confusion due to time zone crossing. See the KAP550 flight status page for this flight to view local times or setup timezone preferences in your user account.

Time Position Orientation Groundspeed Altitude Reporting Facility
EDT Latitude Longitude Course Direction KTS MPH feet Rate Location/Type
10:30 42.7483 -73.8197 269° West 98 113 900  Level Boston Center
10:31 42.7478 -73.8678 269° West 101 116 1,700 632 Climbing Boston Center
10:32 42.7706 -73.8911 323° Northwest 117 135 2,300 626 Climbing Boston Center
10:33 42.8017 -73.9003 348° North 121 139 2,900 776 Climbing Boston Center
10:34 42.8347 -73.9153 342° North 127 146 3,800 835 Climbing Boston Center
10:35 42.8597 -73.9272 341° North 107 123 4,500 730 Climbing Boston Center
10:36 42.8886 -73.9392 343° North 106 122 5,200 639 Climbing Boston Center
10:37 42.9178 -73.9511 343° North 108 124 5,800 545 Climbing Boston Center
10:38 42.9467 -73.9661 339° North 114 131 6,300 347 Climbing Boston Center
10:39 42.9797 -73.9811 342° North 120 138 6,500 94 Climbing Boston Center
10:40 43.0233 -73.9964 346° North 138 159 6,500  Level Boston Center
10:41 43.0503 -74.0083 342° North 143 165 6,500 74 Level Boston Center
10:42 43.0753 -74.0175 345° North 142 163 6,600 98 Climbing Boston Center
10:42 43.0894 -74.0294 328° Northwest 139 160 6,600  Level Boston Center
10:43 43.1061 -74.0356 345° North 148 170 6,600  Level Boston Center
10:44 43.1433 -74.0506 344° North 148 170 6,600 200 Level Boston Center
10:45 43.1786 -74.0658 342° North 142 163 7,000 550 Climbing Boston Center
10:46 43.2139 -74.0811 342° North 136 157 7,700 650 Climbing Boston Center
10:47 43.2450 -74.0933 344° North 125 144 8,300 650 Climbing Boston Center
10:48 43.2739 -74.1025 347° North 114 131 9,000 650 Climbing Boston Center
10:49 43.3008 -74.1175 338° Northwest 97 112 9,600 550 Climbing Boston Center
10:50 43.3278 -74.1269 346° North 97 112 10,100 450 Climbing Boston Center
10:51 43.3547 -74.1392 342° North 102 117 10,500 250 Climbing Boston Center
10:52 43.3878 -74.1572 338° Northwest 111 128 10,600 300 Climbing Boston Center
10:53 43.4211 -74.1694 345° North 121 139 11,100 455 Climbing Boston Center
10:54 43.4603 -74.1850 344° North 126 145 11,600 273 Climbing Boston Center
10:55 43.4978 -74.1975 346° North 126 145 11,700 50 Climbing Boston Center
10:56 43.5436 -74.2017 356° North 141 162 11,700  Level Boston Center
10:57 43.5933 -74.2117 352° North 148 170 11,700 -45 Level Boston Center
10:58 43.6347 -74.2272 345° North 153 176 11,600 -200 Descending Boston Center
10:59 43.6719 -74.2514 335° Northwest 153 176 11,300 -300 Descending Boston Center
11:00 43.7089 -74.2783 332° Northwest 147 169 11,000 -200 Descending Boston Center
11:01 43.7544 -74.2997 341° North 153 176 10,900 -150 Descending Boston Center
11:02 43.7939 -74.3153 344° North 158 182 10,700 -250 Descending Boston Center
11:03 43.8353 -74.3311 345° North 152 175 10,400 -350 Descending Boston Center
11:04 43.8767 -74.3525 340° North 152 175 10,000 -300 Descending Boston Center
11:05 43.9181 -74.3683 345° North 147 169 9,800 -350 Descending Boston Center
11:06 43.9594 -74.3811 347° North 147 169 9,300 -350 Descending Boston Center
11:07 43.9989 -74.3997 341° North 147 169 9,100 -250 Descending Boston Center
11:08 44.0422 -74.4186 343° North 147 169 8,800 -350 Descending Boston Center
11:09 44.0836 -74.4344 345° North 147 169 8,400 -400 Descending Boston Center
11:10 44.1250 -74.4558 340° North 152 175 8,000 50 Descending Boston Center
11:11 44.1664 -74.4689 347° North 152 175 8,500 250 Climbing Boston Center
11:12 44.2056 -74.4819 347° North 147 169 8,500 45 Level Boston Center
11:13 44.2533 -74.5008 344° North 147 169 8,600 45 Climbing Boston Center
11:14 44.2928 -74.5139 347° North 142 163 8,600  Level Boston Center
11:15 44.3300 -74.5239 349° North 142 163 8,600  Level Boston Center
11:16 44.3714 -74.5428 342° North 142 163 8,600  Level Boston Center
11:17 44.4108 -74.5500 353° North 142 163 8,600  Level Boston Center
11:18 44.4522 -74.5661 344° North 142 163 8,600  Level Boston Center
11:19 44.4936 -74.5733 353° North 142 163 8,600  Level Boston Center
11:20 44.5331 -74.5892 344° North 142 163 8,600 -200 Level Boston Center
11:21 44.5764 -74.6025 348° North 142 163 8,200 -500 Descending Boston Center
11:22 44.6200 -74.6128 350° North 148 170 7,600 -800 Descending Boston Center
11:23 44.6636 -74.6175 356° North 148 170 6,600 -1,000 Descending Boston Center